TimeEDT,TemperatureF,Dew PointF,Humidity,Sea Level PressureIn,VisibilityMPH,Wind Direction,Wind SpeedMPH,Gust SpeedMPH,PrecipitationIn,Events,Conditions,WindDirDegrees,DateUTC
12:51 AM,41.0,39.9,96,29.67,9.0,West,10.4,-,0.02,Rain,Light Rain,270,2012-11-01 04:51:00
1:51 AM,41.0,39.0,93,29.67,7.0,WNW,10.4,-,0.00,Rain,Light Rain,290,2012-11-01 05:51:00
2:00 AM,41.0,39.2,93,29.66,7.0,West,11.5,-,0.00,Rain,Light Rain,280,2012-11-01 06:00:00
2:51 AM,41.0,39.0,93,29.68,7.0,West,10.4,-,0.01,Rain,Light Rain,280,2012-11-01 06:51:00
3:51 AM,41.0,39.0,93,29.68,7.0,West,9.2,-,0.01,Rain,Light Rain,270,2012-11-01 07:51:00
4:02 AM,41.0,39.2,93,29.66,10.0,West,8.1,-,0.00,Rain,Light Rain,270,2012-11-01 08:02:00
4:51 AM,41.0,39.0,93,29.68,9.0,West,11.5,-,0.01,Rain,Light Rain,270,2012-11-01 08:51:00
5:04 AM,41.0,37.4,87,29.67,10.0,West,10.4,-,0.00,Rain,Light Rain,280,2012-11-01 09:04:00
5:37 AM,41.0,37.4,87,29.67,10.0,West,8.1,-,0.00,Rain,Light Rain,280,2012-11-01 09:37:00
5:43 AM,41.0,39.2,93,29.67,9.0,West,8.1,-,0.00,Rain,Light Rain,270,2012-11-01 09:43:00
5:51 AM,41.0,37.9,89,29.69,8.0,West,8.1,-,0.00,Rain,Light Rain,270,2012-11-01 09:51:00
6:14 AM,41.0,39.2,93,29.68,6.0,West,9.2,-,0.01,Rain,Light Rain,270,2012-11-01 10:14:00
6:30 AM,41.0,39.2,93,29.68,6.0,West,10.4,-,0.01,Rain,Light Rain,280,2012-11-01 10:30:00
6:51 AM,41.0,39.0,93,29.70,5.0,West,12.7,-,0.03,Rain,Light Rain,280,2012-11-01 10:51:00
7:14 AM,41.0,39.2,93,29.68,6.0,West,12.7,-,0.01,Rain,Light Rain,260,2012-11-01 11:14:00
7:26 AM,41.0,39.2,93,29.69,6.0,WNW,10.4,-,0.02,Rain,Light Rain,290,2012-11-01 11:26:00
7:51 AM,41.0,39.0,93,29.70,6.0,West,10.4,-,0.03,Rain,Light Rain,280,2012-11-01 11:51:00
8:51 AM,39.9,39.0,97,29.73,3.0,West,11.5,-,0.03,Rain,Light Rain,260,2012-11-01 12:51:00
9:40 AM,39.2,39.2,100,29.72,4.0,WSW,10.4,-,0.01,Rain,Light Rain,250,2012-11-01 13:40:00
9:51 AM,39.9,39.0,97,29.74,4.0,WSW,10.4,-,0.01,Rain,Light Rain,250,2012-11-01 13:51:00
10:51 AM,41.0,39.0,93,29.74,5.0,West,9.2,-,0.03,Rain,Light Rain,260,2012-11-01 14:51:00
11:51 AM,41.0,39.0,93,29.75,6.0,West,10.4,-,0.01,Rain,Light Rain,270,2012-11-01 15:51:00
12:22 PM,42.8,37.4,81,29.74,10.0,West,9.2,-,0.00,,Overcast,270,2012-11-01 16:22:00
12:51 PM,42.1,37.0,82,29.75,10.0,West,12.7,-,0.00,,Overcast,280,2012-11-01 16:51:00
1:51 PM,42.1,36.0,79,29.75,10.0,West,12.7,-,N/A,,Overcast,270,2012-11-01 17:51:00
2:51 PM,41.0,35.1,79,29.74,10.0,West,12.7,20.7,N/A,,Overcast,270,2012-11-01 18:51:00
3:51 PM,41.0,35.1,79,29.75,10.0,West,15.0,-,N/A,,Overcast,260,2012-11-01 19:51:00
4:51 PM,41.0,34.0,76,29.76,10.0,West,9.2,-,N/A,,Mostly Cloudy,260,2012-11-01 20:51:00
5:29 PM,42.8,35.6,76,29.74,10.0,WSW,9.2,-,N/A,,Mostly Cloudy,250,2012-11-01 21:29:00
5:51 PM,39.9,34.0,79,29.76,10.0,SW,5.8,-,N/A,,Scattered Clouds,230,2012-11-01 21:51:00
6:51 PM,37.9,33.1,83,29.77,10.0,South,4.6,-,N/A,,Mostly Cloudy,180,2012-11-01 22:51:00
7:51 PM,39.0,35.1,86,29.78,10.0,South,6.9,-,N/A,,Overcast,170,2012-11-01 23:51:00
8:51 PM,39.9,34.0,79,29.78,10.0,South,6.9,-,N/A,,Overcast,190,2012-11-02 00:51:00
9:51 PM,39.0,35.1,86,29.78,10.0,WSW,4.6,-,N/A,,Overcast,250,2012-11-02 01:51:00
10:51 PM,37.9,35.1,89,29.79,10.0,SW,5.8,-,N/A,,Overcast,230,2012-11-02 02:51:00
11:51 PM,37.4,33.8,87,29.77,10.0,WSW,5.8,-,N/A,,Mostly Cloudy,240,2012-11-02 03:51:00